This demonstration page uses our WeatherBlox Daily Observations layout. Learn more.

Left ArrowRight Arrow

44.8408, -93.29828

Hourly Observations for June 29, 2017

Temp ( °F °C ) Dew Point ( °F °C ) Humidity (%) Winds ( mph kmh ) Pressure ( in mb ) Visibility ( mi km ) Precip ( " mm )
12:38 am 00:38 Cloudy 70 21.1 59 15 68 68 W 15 24 29.59 1002 10 16 0.00 0.00
12:53 am 00:53 Cloudy 70 21.1 59 15 68 68 W 12 19 29.62 1003 10 16 0.00 0.00
1:26 am 01:26 Cloudy 69 20.6 59 15 70 70 W 10 17 29.59 1002 10 16 0.00 0.00
1:53 am 01:53 Cloudy 69 20.6 59 15 70 70 W 10 17 29.61 1003 10 16 0.00 0.00
2:53 am 02:53 Mostly Cloudy 68 20 59 15 73 73 WNW 13 20 29.62 1003 10 16 0.00 0.00
3:33 am 03:33 Mostly Cloudy 67 19.4 59 15 76 76 WNW 10 17 29.62 1003 10 16 0.00 0.00
3:51 am 03:51 Cloudy 66 19 59 15 78 78 WNW 12 19 29.65 1004 10 16 0.00 0.00
3:53 am 03:53 Mostly Cloudy 67 19.4 59 15 76 76 WNW 13 20 29.63 1003 10 16 0.00 0.00
4:12 am 04:12 Partly Cloudy 66 18.9 58 14.4 75 75 WNW 10 17 29.65 1004 10 16 0.00 0.00
4:49 am 04:49 Mostly Cloudy 66 19 59 15 78 78 W 10 17 29.68 1005 10 16 0.00 0.00
4:53 am 04:53 Mostly Cloudy 66 18.9 59 15 78 78 WNW 9 15 29.66 1004 10 16 0.00 0.00
5:53 am 05:53 Cloudy 65 18.3 58 14.4 78 78 WNW 8 13 29.67 1005 10 16 0.00 0.00
6:53 am 06:53 Cloudy 66 18.9 58 14.4 75 75 WSW 12 19 29.71 1006 10 16 0.00 0.00
7:53 am 07:53 Cloudy 66 18.9 58 14.4 75 75 W 9 15 29.71 1006 10 16 0.00 0.00
8:53 am 08:53 Cloudy 67 19.4 58 14.4 73 73 NW 13 20 29.72 1006 10 16 0.00 0.00
9:53 am 09:53 Cloudy 67 19.4 58 14.4 73 73 W 14 22 29.75 1007 10 16 0.00 0.00
10:53 am 10:53 Cloudy 68 20 59 15 73 73 NNW 13 20 29.76 1008 10 16 0.00 0.00
11:53 am 11:53 Cloudy 70 21.1 59 15 68 68 NW 8 13 29.75 1008 10 16 0.00 0.00
12:53 pm 12:53 Cloudy 70 21.1 59 15 68 68 NW 12 19 29.77 1008 10 16 0.00 0.00
1:53 pm 13:53 Cloudy 71 21.7 59 15 66 66 WNW 10 17 29.77 1008 10 16 0.00 0.00
2:53 pm 14:53 Cloudy 73 22.8 60 15.6 64 64 NW 13 20 29.77 1008 10 16 0.00 0.00
3:24 pm 15:24 Cloudy 73 22.8 60 15.6 64 64 W 6 9 29.77 1008 10 16 0.00 0.00
3:53 pm 15:53 Cloudy 74 23.3 60 15.6 62 62 WNW 8 13 29.78 1009 10 16 0.00 0.00
4:53 pm 16:53 Mostly Cloudy 76 24.4 61 16.1 60 60 WNW 7 11 29.78 1009 10 16 0.00 0.00
5:53 pm 17:53 Mostly Cloudy 77 25 61 16.1 58 58 NW 7 11 29.77 1008 10 16 0.00 0.00
6:53 pm 18:53 Mostly Cloudy 75 23.9 59 15 58 58 N 5 7 29.76 1008 10 16 0.00 0.00
7:53 pm 19:53 Mostly Cloudy 74 23.3 59 15 60 60 VRB 6 9 29.78 1009 10 16 0.00 0.00
8:53 pm 20:53 Cloudy 74 23.3 59 15 60 60 WSW 8 13 29.80 1009 10 16 0.00 0.00
9:53 pm 21:53 Cloudy 73 22.8 61 16.1 66 66 SSW 9 15 29.81 1010 10 16 0.00 0.00
10:53 pm 22:53 Cloudy 71 21.7 60 15.6 68 68 E 10 17 29.74 1007 10 16 0.00 0.00
11:25 pm 23:25 Cloudy 70 21.1 61 16.1 73 73 NW 7 11 29.77 1008 10 16 0.00 0.00
11:53 pm 23:53 Mostly Cloudy 71 21.7 61 16.1 71 71 WSW 3 6 29.80 1009 10 16 0.00 0.00

Powered by AerisWeather